Belize, Belize

2:56 AM CST on December 14, 2017 (GMT -0600)
Philip S W Goldson International

Weather History for MZBZ - October, 2011

Change the Weather History Date:

Tuesday, October 11, 2011

  Actual Average Record
Temperature  
Mean Temperature 84 °F -  
Max Temperature 89 °F 86 °F 90 °F (2015)
Min Temperature 78 °F 72 °F 71 °F (1996)
Cooling Degree Days 18    
Growing Degree Days 34 (Base 50)    
Moisture  
Dew Point 77 °F    
Average Humidity 77    
Maximum Humidity 94    
Minimum Humidity 58    
Precipitation  
Precipitation 0.00 in 0.30 in - ()
Sea Level Pressure  
Sea Level Pressure 29.80 in    
Wind  
Wind Speed 3 mph ()    
Max Wind Speed 8 mph    
Max Gust Speed -    
Visibility 9.5 miles    
Events      
Averages and records for this station are not official NWS values.
T = Trace of Precipitation, MM = Missing Value Source: Averaged Metar Reports

Daily Weather History Graph

Daily Weather History Graph

Search for Another Location

Airport or City:

Trip Planner

Search our weather history database for the weather conditions in past years. The results will help you decide how hot, cold, wet, or windy it might be!

Date:

Astronomy

Oct. 11, 2011 Rise Set
Actual Time 5:45 AM CST 5:34 PM CST
Civil Twilight 5:23 AM CST 5:56 PM CST
Nautical Twilight 4:58 AM CST 6:21 PM CST
Astronomical Twilight 4:33 AM CST 6:46 PM CST
Moon 5:14 PM CST (10/11) 5:18 AM CST (10/11)
Length of Visible Light 12h 32m
Length of Day
11h 48m
Full, 100% of the Moon is Illuminated
Oct 11
Full
Oct 11
Full
Oct 19
Last Quarter
Oct 26
New
Nov 2
First Quarter

Hourly Weather History & Observations

Time (CST) Temp. Heat Index Dew Point Humidity Pressure Visibility Wind Dir Wind Speed Gust Speed Precip Events Conditions
12:00 AM 81 °F - 78 °F 88% 29.82 in 16 mi Calm Calm - -  
12:00 AM 80.6 °F 88.1 °F 78.8 °F 94% 29.81 in 6.2 mi Calm Calm - N/A   Partly Cloudy
3:00 AM 80 °F - 76 °F 85% 29.78 in 16 mi Calm Calm - -   Scattered Clouds
3:00 AM 80.6 °F 87.1 °F 77.0 °F 89% 29.77 in 6.2 mi Calm Calm - N/A   Partly Cloudy
6:00 AM 79 °F - 77 °F 91% 29.81 in 16 mi Calm Calm - -  
6:00 AM 78.8 °F - 77.0 °F 94% 29.81 in 6.2 mi Calm Calm - N/A   Partly Cloudy
7:00 AM 80.6 °F 87.1 °F 77.0 °F 89% 29.83 in 6.2 mi WNW 3.5 mph - N/A   Partly Cloudy
8:00 AM 82.4 °F 92.4 °F 78.8 °F 89% 29.84 in 6.2 mi West 4.6 mph - N/A   Scattered Clouds
9:00 AM 85 °F - 78 °F 74% 29.85 in 16 mi North 3.5 mph - -   Partly Cloudy
9:00 AM 84.2 °F 96.1 °F 78.8 °F 84% 29.85 in 6.2 mi North 3.5 mph - N/A   Scattered Clouds
10:00 AM 87.8 °F 97.6 °F 75.2 °F 66% 29.84 in 6.2 mi NE 5.8 mph - N/A   Scattered Clouds
11:00 AM 89.6 °F 102.2 °F 77.0 °F 66% 29.83 in 6.2 mi ENE 8.1 mph - N/A   Partly Cloudy
12:00 PM 88 °F - 76 °F 59% 29.82 in 16 mi ENE 8.1 mph - -  
12:00 PM 87.8 °F 97.6 °F 75.2 °F 66% 29.82 in 6.2 mi ENE 8.1 mph - N/A   Partly Cloudy
1:00 PM 89.6 °F 102.2 °F 77.0 °F 66% 29.79 in 6.2 mi ENE 8.1 mph - N/A   Scattered Clouds
2:00 PM 89.6 °F 99.8 °F 75.2 °F 62% 29.76 in 6.2 mi East 8.1 mph - N/A   Partly Cloudy
3:00 PM 89 °F - 76 °F 58% 29.75 in 16 mi East 6.9 mph - -   Scattered Clouds
3:00 PM 89.6 °F 102.2 °F 77.0 °F 66% 29.75 in 6.2 mi East 6.9 mph - N/A   Partly Cloudy
4:00 PM 87.8 °F 99.7 °F 77.0 °F 70% 29.75 in 6.2 mi East 6.9 mph - N/A   Partly Cloudy
5:00 PM 87.8 °F 97.6 °F 75.2 °F 66% 29.76 in 6.2 mi ENE 6.9 mph - N/A   Partly Cloudy
6:00 PM 84 °F - 77 °F 75% 29.78 in 16 mi East 5.8 mph - -  
6:00 PM 84.2 °F 94.1 °F 77.0 °F 79% 29.77 in 6.2 mi East 5.8 mph - N/A   Partly Cloudy
9:00 PM 82 °F - 77 °F 82% 29.84 in 16 mi Calm Calm - -  
9:00 PM 82.4 °F 90.9 °F 77.0 °F 84% 29.84 in 6.2 mi Calm Calm - N/A   Partly Cloudy